Home   Weather   Apolda   Past weeks
Flag for Germany

Past Weather in Apolda, Thuringia, Germany — Yesterday and Last 2 Weeks

Now
46 °F

Clear.


Feels Like: 42 °F
Forecast: 72 / 43 °F
Wind: 9 mph from Southwest

Location: Erfurt-Bindersleben

Current Time: Sep 21, 2019 at 3:05:47 am

Latest Report: Sep 21, 2019 at 2:20 am


Visibility: 10 mi

Pressure: 30.27 "Hg

Humidity: 71%

Dew Point: 37 °F

Location of ApoldaLocation

Past Weather in Apolda — Graph

°F

Apolda Temperature Yesterday

Maximum temperature yesterday: 61 °F (at 3:20 pm)
Minimum temperature yesterday: 36 °F (at 5:20 am)
Average temperature yesterday: 49 °F

High & Low Weather Summary for the Past Weeks

 TemperatureHumidityPressure
High79 °F (Sep 15, 4:20 pm)100% (Sep 8, 1:20 am)30.54 "Hg (Sep 8, 1:20 am)
Low36 °F (Sep 20, 5:20 am)26% (Sep 15, 5:20 pm)29.89 "Hg (Sep 9, 11:50 am)
Average56 °F71%30.21 "Hg
* Reported Sep 6 1:20 am — Sep 21 1:50 am, Apolda. Weather by CustomWeather, © 2019

Note: Actual official high and low records may vary slightly from our data, if they occured in-between our weather recording intervals... More about our weather records

Advertising

Apolda Weather History for the Previous 24 Hours

Scroll right to see more
 ConditionsComfort  
Time TempWeatherWind HumidityBarometerVisibility
1:50 am
Sat, Sep 21
46 °FClear.9 mph71%30.27 "Hg10 mi
1:20 am46 °FClear.9 mph71%30.27 "Hg10 mi
12:50 am48 °FClear.9 mph66%30.30 "Hg10 mi
12:20 am48 °FClear.9 mph66%30.30 "Hg10 mi
11:50 pm
Fri, Sep 20
48 °FClear.8 mph66%30.30 "Hg10 mi
11:20 pm48 °FClear.9 mph66%30.30 "Hg10 mi
10:50 pm48 °FClear.8 mph71%30.30 "Hg10 mi
10:20 pm50 °FClear.7 mph62%30.30 "Hg10 mi
9:50 pm50 °FClear.8 mph62%30.33 "Hg10 mi
9:20 pm55 °FClear.3 mph51%30.33 "Hg10 mi
8:50 pm55 °FClear.3 mph51%30.33 "Hg10 mi
8:20 pm57 °FClear.3 mph48%30.33 "Hg10 mi
7:50 pm57 °FClear.2 mph48%30.33 "Hg10 mi
7:20 pm57 °FClear.2 mph44%30.33 "Hg10 mi
6:50 pm59 °FSunny.2 mph42%30.33 "Hg10 mi
6:20 pm61 °FPassing clouds.3 mph39%30.33 "HgN/A
5:50 pm61 °FPassing clouds.5 mph39%30.33 "HgN/A
5:20 pm61 °FSunny.3 mph36%30.33 "Hg10 mi
4:50 pm61 °FPassing clouds.3 mph34%30.33 "HgN/A
4:20 pm61 °FSunny.5 mph34%30.36 "Hg10 mi
3:50 pm61 °FSunny.3 mph34%30.36 "Hg10 mi
3:20 pm61 °FPassing clouds.7 mph31%30.36 "HgN/A
2:50 pm59 °FSunny.6 mph31%30.36 "Hg10 mi
2:20 pm59 °FPassing clouds.6 mph34%30.39 "HgN/A
1:50 pm59 °FSunny.5 mph36%30.39 "Hg10 mi
1:20 pm59 °FPassing clouds.6 mph45%30.39 "HgN/A
12:50 pm57 °FPassing clouds.3 mph55%30.39 "HgN/A
12:20 pm57 °FPassing clouds.5 mph55%30.39 "HgN/A
11:50 am55 °FPassing clouds.3 mph55%30.39 "HgN/A
11:20 am55 °FPassing clouds.2 mph59%30.42 "HgN/A
10:50 am54 °FPassing clouds.2 mph58%30.42 "HgN/A
10:20 am50 °FPassing clouds.3 mph67%30.42 "HgN/A
9:50 am46 °FPassing clouds.5 mph76%30.42 "HgN/A
9:20 am46 °FPassing clouds.6 mph71%30.42 "HgN/A
8:50 am43 °FSunny.7 mph81%30.39 "Hg10 mi
8:20 am41 °FSunny.8 mph81%30.39 "Hg10 mi
7:50 am39 °FSunny.8 mph87%30.39 "Hg10 mi
7:20 am36 °FSunny.8 mph93%30.39 "Hg10 mi
6:50 am36 °FClear.9 mph93%30.39 "Hg10 mi
6:20 am36 °FClear.10 mph87%30.39 "Hg10 mi
5:50 am36 °FClear.9 mph93%30.39 "Hg10 mi
5:20 am36 °FClear.8 mph93%30.39 "Hg10 mi
4:50 am37 °FClear.9 mph87%30.39 "Hg10 mi
4:20 am37 °FClear.9 mph87%30.39 "Hg10 mi
3:50 am39 °FClear.8 mph81%30.39 "Hg10 mi
3:20 am37 °FClear.9 mph87%30.39 "Hg10 mi
Weather by CustomWeather, © 2019

See weather overview